GW1261 Weather Reports


Display with metric or nautical units.
time (UTC)temp
F
wind
direction
speed
MPH
gust
MPH
rain 1hr
in
rain 24hr
in
rain mn
in
humidity
%
barometer
mb
20260902083513 84 232 0.0 0.0 0.00 0.00 0.00 89 973.3
20260902083007 84 246 0.0 0.0 0.00 0.00 0.00 89 973.3
20260902082503 84 227 0.0 0.0 0.00 0.00 0.00 90 973.0
20260902081959 84 226 0.0 0.0 0.00 0.00 0.00 92 973.2
20260902081455 84 199 0.0 0.0 0.00 0.00 0.00 89 973.3
20260902080949 84 219 0.0 0.0 0.00 0.00 0.00 91 973.1
20260902080446 84 239 0.0 0.0 0.00 0.00 0.00 90 973.2
20260902075945 84 238 0.0 0.0 0.00 0.00 0.00 89 973.3
20260902075441 84 239 0.0 0.0 0.00 0.00 0.00 89 973.4
20260902074936 85 240 0.0 0.0 0.00 0.00 0.00 90 973.4
20260902074432 86 240 0.0 0.0 0.00 0.00 0.00 87 973.5
20260902073927 85 240 0.0 0.0 0.00 0.00 0.00 89 973.5
20260902073423 84 242 0.0 0.0 0.00 0.00 0.00 89 973.6
20260902072919 85 232 0.0 0.0 0.00 0.00 0.00 89 973.7
20260902072414 86 223 0.0 0.0 0.00 0.00 0.00 90 973.7
20260902071911 86 220 0.0 0.0 0.00 0.00 0.00 86 973.7
20260902071410 86 211 0.0 0.0 0.00 0.00 0.00 89 973.6
20260902070907 86 210 0.0 0.0 0.00 0.00 0.00 88 973.8
20260902070402 86 226 0.0 0.0 0.00 0.00 0.00 90 974.0
20260902065901 86 226 0.0 0.0 0.00 0.00 0.00 90 974.0
20260902065356 85 226 0.0 0.0 0.00 0.00 0.00 90 974.0
20260902064851 85 228 0.0 0.0 0.00 0.00 0.00 90 974.3
20260902064347 85 199 0.0 0.0 0.00 0.00 0.00 92 974.4
20260902063843 84 167 0.0 0.0 0.00 0.00 0.00 89 974.3
20260902063342 84 182 0.0 0.0 0.00 0.00 0.00 92 974.2
20260902062836 84 182 0.0 0.0 0.00 0.00 0.00 93 974.4
20260902062331 84 182 0.0 0.0 0.00 0.00 0.00 95 974.7
20260902061830 84 182 0.0 0.0 0.00 0.00 0.00 93 974.4
20260902061326 85 168 0.0 0.0 0.00 0.00 0.00 92 974.5
20260902060822 85 168 0.0 0.0 0.00 0.00 0.00 90 974.6
20260902060318 85 168 0.0 0.0 0.00 0.00 0.00 91 974.6
20260902055813 86 168 0.0 0.0 0.00 0.00 0.00 89 974.7
20260902055309 86 167 0.0 0.0 0.00 0.00 0.00 86 974.9
20260902054804 86 167 0.0 0.0 0.00 0.00 0.00 84 975.1
20260902054259 86 167 0.0 0.0 0.00 0.00 0.00 85 975.0
20260902053755 86 167 0.0 0.0 0.00 0.00 0.00 85 975.0
20260902053249 86 167 0.0 0.0 0.00 0.00 0.00 84 975.2
20260902052748 86 168 0.0 0.0 0.00 0.00 0.00 83 975.2
20260902052243 86 155 0.0 0.0 0.00 0.00 0.00 82 975.3
20260902051738 86 164 0.0 0.0 0.00 0.00 0.00 81 975.5
20260902051232 86 159 0.0 0.0 0.00 0.00 0.00 81 975.4
20260902050727 87 157 0.0 0.0 0.00 0.00 0.00 81 975.5
20260902050222 87 159 0.0 0.0 0.00 0.00 0.00 82 975.9
20260902045716 86 153 0.0 1.0 0.00 0.00 0.00 81 975.5
20260902045213 87 183 0.0 0.0 0.00 0.00 0.00 83 975.6
20260902044708 87 188 0.0 0.0 0.00 0.00 0.00 86 975.5
20260902044204 86 188 0.0 0.0 0.00 0.00 0.00 85 975.8
20260902043658 86 183 0.0 0.0 0.00 0.00 0.00 83 975.9
20260902043154 86 187 0.0 0.0 0.00 0.00 0.00 84 975.9
20260902042653 86 188 0.0 0.0 0.00 0.00 0.00 84 976.0
20260902042149 86 188 0.0 0.0 0.00 0.00 0.00 84 976.1
20260902041648 86 194 0.0 0.0 0.00 0.00 0.00 85 976.2
20260902041143 86 194 0.0 0.0 0.00 0.00 0.00 85 976.5
20260902040642 86 202 0.0 0.0 0.00 0.00 0.00 86 976.4
20260902040137 86 202 0.0 0.0 0.00 0.00 0.00 86 976.4
20260902035636 86 202 0.0 0.0 0.00 0.00 0.00 85 976.4
20260902035131 86 190 0.0 0.0 0.00 0.00 0.00 87 976.4
20260902034630 86 190 0.0 0.0 0.00 0.00 0.00 86 976.5
20260902034125 86 202 0.0 0.0 0.00 0.00 0.00 87 976.5
20260902033624 85 202 0.0 0.0 0.00 0.00 0.00 87 976.7
20260902033120 85 202 0.0 0.0 0.00 0.00 0.00 87 976.9
20260902032618 84 199 0.0 0.0 0.00 0.00 0.00 87 976.6
20260902032112 84 202 0.0 0.0 0.00 0.00 0.00 86 976.7
20260902031607 84 202 0.0 0.0 0.00 0.00 0.00 88 976.6
20260902031104 84 189 0.0 0.0 0.00 0.00 0.00 90 976.8
20260902030603 84 198 0.0 0.0 0.00 0.00 0.00 87 976.7
20260902030057 84 201 0.0 0.0 0.00 0.00 0.00 89 976.8
20260902025552 84 201 0.0 0.0 0.00 0.00 0.00 90 976.8
20260902025047 83 198 0.0 0.0 0.00 0.00 0.00 89 976.7
20260902024543 83 198 0.0 0.0 0.00 0.00 0.00 88 976.6
20260902024043 84 198 0.0 0.0 0.00 0.00 0.00 90 976.6
20260902023539 84 198 0.0 0.0 0.00 0.00 0.00 89 976.9
20260902023033 84 198 0.0 0.0 0.00 0.00 0.00 88 976.6
20260902022527 84 199 0.0 0.0 0.00 0.00 0.00 89 976.7
20260902022024 84 198 0.0 0.0 0.00 0.00 0.00 88 976.6
20260902021519 84 188 0.0 0.0 0.00 0.00 0.00 88 976.7
20260902021014 84 194 0.0 0.0 0.00 0.00 0.00 92 976.6
20260902020509 84 194 0.0 0.0 0.00 0.00 0.00 92 976.8
20260902020006 84 194 0.0 0.0 0.00 0.00 0.00 89 976.7
20260902015501 84 198 0.0 0.0 0.00 0.00 0.00 89 976.9
20260902014956 83 202 0.0 0.0 0.00 0.00 0.00 94 976.7
20260902014452 82 202 0.0 0.0 0.00 0.00 0.00 97 976.5
20260902013952 80 202 0.0 0.0 0.00 0.00 0.00 98 976.7
20260902013447 79 202 0.0 0.0 0.00 0.00 0.00 98 976.6
20260902012942 80 202 0.0 0.0 0.00 0.00 0.00 98 976.7
20260902012438 79 203 0.0 0.0 0.00 0.00 0.00 99 976.6
20260902011933 79 203 0.0 0.0 0.00 0.00 0.00 99 976.7
20260902011428 78 203 0.0 0.0 0.00 0.00 0.00 99 976.6
20260902010928 78 203 0.0 0.0 0.00 0.00 0.00 99 976.6
20260902010423 77 203 0.0 0.0 0.00 0.00 0.00 99 976.5
20260902005922 77 203 0.0 0.0 0.00 0.00 0.00 99 976.2
20260902005416 77 203 0.0 0.0 0.00 0.00 0.00 99 976.1
20260902004912 77 203 0.0 0.0 0.00 0.00 0.00 99 976.0
20260902004411 77 203 0.0 0.0 0.00 0.00 0.00 99 976.0
20260902003906 77 203 0.0 0.0 0.00 0.00 0.00 99 976.0
20260902003402 77 203 0.0 0.0 0.00 0.00 0.00 99 975.9
20260902002857 77 203 0.0 0.0 0.00 0.00 0.00 99 975.9
20260902002356 77 194 0.0 0.0 0.00 0.00 0.00 99 975.8
20260902001852 77 194 0.0 0.0 0.00 0.00 0.00 99 975.8
20260902001347 77 194 0.0 0.0 0.00 0.00 0.00 99 976.1
20260902000841 77 195 0.0 0.0 0.00 0.00 0.00 99 975.7
20260902000337 76 195 0.0 0.0 0.00 0.00 0.00 99 975.6
20260901235832 76 195 0.0 0.0 0.00 0.00 0.00 99 975.6
20260901235331 76 195 0.0 0.0 0.00 0.00 0.00 99 975.7
20260901234826 76 195 0.0 0.0 0.00 0.00 0.00 99 975.6
20260901234322 76 195 0.0 0.0 0.00 0.00 0.00 99 975.6
20260901233815 76 195 0.0 0.0 0.00 0.00 0.00 99 975.4
20260901233311 76 182 0.0 0.0 0.00 0.00 0.00 99 975.6
20260901232806 76 194 0.0 0.0 0.00 0.00 0.00 99 975.4
20260901232255 76 204 0.0 0.0 0.00 0.00 0.00 99 975.2
20260901231751 76 204 0.0 0.0 0.00 0.00 0.00 99 975.3
20260901231242 76 204 0.0 0.0 0.00 0.00 0.00 99 975.1
20260901230738 76 204 0.0 0.0 0.00 0.00 0.00 99 975.3
20260901230237 76 204 0.0 0.0 0.00 0.00 0.00 99 975.2
20260901225733 76 204 0.0 0.0 0.00 0.00 0.00 99 975.1
20260901225227 76 204 0.0 0.0 0.00 0.00 0.00 99 975.0
20260901224723 76 204 0.0 0.0 0.00 0.00 0.00 99 975.1
20260901224219 76 204 0.0 0.0 0.00 0.00 0.00 99 974.9
20260901223715 76 204 0.0 0.0 0.00 0.00 0.00 99 974.9
20260901223209 76 204 0.0 0.0 0.00 0.00 0.00 99 974.7
20260901222705 76 204 0.0 0.0 0.00 0.00 0.00 99 974.9
20260901222201 76 204 0.0 0.0 0.00 0.00 0.00 99 974.8
20260901221657 76 204 0.0 0.0 0.00 0.00 0.00 99 974.7
20260901221153 76 204 0.0 0.0 0.00 0.00 0.00 99 974.9
20260901220652 76 204 0.0 0.0 0.00 0.00 0.00 99 974.7
20260901220152 76 204 0.0 0.0 0.00 0.00 0.00 99 974.8
20260901215650 76 204 0.0 0.0 0.00 0.00 0.00 99 974.8
20260901215145 76 204 0.0 0.0 0.00 0.00 0.00 99 974.4
20260901214642 76 204 0.0 0.0 0.00 0.00 0.00 99 974.4
20260901214136 76 204 0.0 0.0 0.00 0.00 0.00 99 974.7
20260901213631 76 204 0.0 0.0 0.00 0.00 0.00 99 974.6
20260901213126 76 204 0.0 0.0 0.00 0.00 0.00 99 974.7
20260901212625 76 204 0.0 0.0 0.00 0.00 0.00 99 974.6
20260901212121 76 204 0.0 0.0 0.00 0.00 0.00 99 974.7
20260901211616 76 204 0.0 0.0 0.00 0.00 0.00 99 974.7
20260901211113 76 204 0.0 0.0 0.00 0.00 0.00 99 974.6
20260901210608 76 204 0.0 0.0 0.00 0.00 0.00 99 974.4
20260901210104 76 204 0.0 0.0 0.00 0.00 0.00 99 974.4
20260901205559 76 204 0.0 0.0 0.00 0.00 0.00 99 974.9
20260901205053 76 204 0.0 0.0 0.00 0.00 0.00 99 974.8
20260901204550 76 204 0.0 0.0 0.00 0.00 0.00 99 974.9
20260901204045 76 204 0.0 0.0 0.00 0.00 0.00 99 974.8
20260901203539 76 204 0.0 0.0 0.00 0.00 0.00 99 974.8
20260901203034 76 204 0.0 0.0 0.00 0.00 0.00 99 975.0
20260901202529 76 204 0.0 0.0 0.00 0.00 0.00 99 975.1
20260901202025 76 204 0.0 0.0 0.00 0.00 0.00 99 974.9
20260901201520 76 204 0.0 0.0 0.00 0.00 0.00 99 975.0
20260901201014 76 204 0.0 0.0 0.00 0.00 0.00 99 974.9
20260901200509 76 204 0.0 0.0 0.00 0.00 0.00 99 974.9
20260901200008 76 204 0.0 0.0 0.00 0.00 0.00 99 975.1
20260901195506 77 204 0.0 0.0 0.00 0.00 0.00 99 975.1
20260901195006 77 204 0.0 0.0 0.00 0.00 0.00 99 975.1
20260901194501 77 204 0.0 0.0 0.00 0.00 0.00 99 975.0
20260901193957 77 204 0.0 0.0 0.00 0.00 0.00 99 975.1
20260901193456 77 204 0.0 0.0 0.00 0.00 0.00 99 975.3
20260901192956 77 204 0.0 0.0 0.00 0.00 0.00 99 975.3
20260901192452 77 204 0.0 0.0 0.00 0.00 0.00 99 975.2
20260901191947 77 204 0.0 0.0 0.00 0.00 0.00 99 975.2
20260901191443 77 204 0.0 0.0 0.00 0.00 0.00 99 975.3
20260901190939 77 204 0.0 0.0 0.00 0.00 0.00 99 975.4
20260901190434 77 204 0.0 0.0 0.00 0.00 0.00 99 975.5
20260901185932 77 204 0.0 0.0 0.00 0.00 0.00 99 975.4
20260901185432 77 204 0.0 0.0 0.00 0.00 0.00 99 975.7
20260901184926 77 204 0.0 0.0 0.00 0.00 0.00 99 975.8
20260901184422 77 204 0.0 0.0 0.00 0.00 0.00 99 975.6
20260901183917 77 204 0.0 0.0 0.00 0.00 0.00 99 975.7
20260901183416 77 204 0.0 0.0 0.00 0.00 0.00 99 975.9
20260901182912 77 204 0.0 0.0 0.00 0.00 0.00 99 975.8
20260901182407 77 204 0.0 0.0 0.00 0.00 0.00 99 976.1
20260901181902 77 204 0.0 0.0 0.00 0.00 0.00 99 976.2
20260901181357 77 204 0.0 0.0 0.00 0.00 0.00 99 976.2
20260901180856 77 204 0.0 0.0 0.00 0.00 0.00 99 976.1
20260901180355 77 204 0.0 0.0 0.00 0.00 0.00 99 976.3
20260901175853 77 204 0.0 0.0 0.00 0.00 0.00 99 976.2
20260901175348 78 204 0.0 0.0 0.00 0.00 0.00 99 976.3
20260901174844 78 204 0.0 0.0 0.00 0.00 0.00 99 976.0
20260901174339 78 204 0.0 0.0 0.00 0.00 0.00 99 976.5
20260901173835 78 204 0.0 0.0 0.00 0.00 0.00 99 976.3
20260901173329 78 204 0.0 0.0 0.00 0.00 0.00 99 976.5
20260901172826 78 204 0.0 0.0 0.00 0.00 0.00 99 976.4
20260901172325 78 204 0.0 0.0 0.00 0.00 0.00 99 976.4
20260901171823 78 204 0.0 0.0 0.00 0.00 0.00 99 976.4
20260901171322 78 204 0.0 0.0 0.00 0.00 0.00 99 976.7
20260901170816 78 204 0.0 0.0 0.00 0.00 0.00 99 976.6
20260901170311 78 204 0.0 0.0 0.00 0.00 0.00 99 976.6
20260901165810 78 204 0.0 0.0 0.00 0.00 0.00 99 977.1
20260901165306 78 204 0.0 0.0 0.00 0.00 0.00 99 976.9
20260901164801 78 204 0.0 0.0 0.00 0.00 0.00 99 976.7
20260901164256 78 204 0.0 0.0 0.00 0.00 0.00 99 976.8
20260901163750 78 204 0.0 0.0 0.00 0.00 0.00 99 976.8
20260901163245 78 204 0.0 0.0 0.00 0.00 0.00 99 976.9
20260901162740 78 204 0.0 0.0 0.00 0.00 0.00 99 976.6
20260901162239 78 204 0.0 0.0 0.00 0.00 0.00 99 976.9
20260901161738 78 204 0.0 0.0 0.00 0.00 0.00 99 976.9
20260901161233 78 204 0.0 0.0 0.00 0.00 0.00 99 976.8
20260901160729 78 204 0.0 0.0 0.00 0.00 0.00 99 976.8
20260901160225 78 204 0.0 0.0 0.00 0.00 0.00 99 977.0
20260901155723 78 204 0.0 0.0 0.00 0.00 0.00 99 977.0
20260901155219 78 204 0.0 0.0 0.00 0.00 0.00 99 977.2
20260901154714 78 204 0.0 0.0 0.00 0.00 0.00 99 976.9
20260901154209 78 204 0.0 0.0 0.00 0.00 0.00 99 977.0
20260901153704 79 204 0.0 0.0 0.00 0.00 0.00 99 977.0
20260901153204 78 204 0.0 0.0 0.00 0.00 0.00 98 977.0
20260901152658 78 204 0.0 0.0 0.00 0.00 0.00 98 977.2
20260901152156 78 204 0.0 0.0 0.00 0.00 0.00 98 977.2
20260901151652 79 204 0.0 0.0 0.00 0.00 0.00 98 977.1
20260901151151 79 204 0.0 0.0 0.00 0.00 0.00 98 977.0
20260901150651 79 204 0.0 0.0 0.00 0.00 0.00 98 976.9
20260901150149 79 204 0.0 0.0 0.00 0.00 0.00 98 977.1
20260901145647 79 204 0.0 0.0 0.00 0.00 0.00 97 976.8
20260901145148 79 204 0.0 0.0 0.00 0.00 0.00 97 976.8
20260901144643 79 204 0.0 0.0 0.00 0.00 0.00 97 977.0
20260901144138 79 204 0.0 0.0 0.00 0.00 0.00 97 976.7
20260901143633 79 204 0.0 0.0 0.00 0.00 0.00 97 976.7
20260901143130 79 204 0.0 0.0 0.00 0.00 0.00 97 976.3
20260901142626 79 204 0.0 0.0 0.00 0.00 0.00 97 976.5
20260901142125 79 204 0.0 0.0 0.00 0.00 0.00 97 976.2
20260901141620 79 204 0.0 0.0 0.00 0.00 0.00 96 976.1
20260901141114 79 204 0.0 0.0 0.00 0.00 0.00 97 976.1
20260901140613 79 204 0.0 0.0 0.00 0.00 0.00 96 976.1
20260901140113 79 205 0.0 0.0 0.00 0.00 0.00 96 976.0
20260901135612 79 203 0.0 0.0 0.00 0.00 0.00 97 975.9
20260901135107 79 203 0.0 0.0 0.00 0.00 0.00 97 975.8
20260901134604 79 203 0.0 0.0 0.00 0.00 0.00 98 975.7
20260901134058 79 202 0.0 0.0 0.00 0.00 0.00 98 975.6
20260901133557 79 202 0.0 0.0 0.00 0.00 0.00 96 975.5
20260901133056 79 202 0.0 0.0 0.00 0.00 0.00 96 975.4
20260901132550 79 201 0.0 0.0 0.00 0.00 0.00 96 975.3
20260901132045 79 201 0.0 0.0 0.00 0.00 0.00 96 975.3
20260901131544 80 201 0.0 0.0 0.00 0.00 0.00 96 975.1
20260901131035 80 201 0.0 0.0 0.00 0.00 0.00 96 975.1
20260901130534 80 201 0.0 0.0 0.00 0.00 0.00 96 975.3
20260901130033 80 201 0.0 0.0 0.00 0.00 0.00 96 975.0
20260901125531 80 201 0.0 0.0 0.00 0.00 0.00 96 975.1
20260901125027 80 201 0.0 0.0 0.00 0.00 0.00 97 975.2
20260901124527 80 201 0.0 0.0 0.00 0.00 0.00 96 974.9
20260901124027 80 201 0.0 0.0 0.00 0.00 0.00 96 974.7
20260901123521 80 201 0.0 0.0 0.00 0.00 0.00 96 974.7
20260901123016 80 201 0.0 0.0 0.00 0.00 0.00 97 974.6
20260901122515 80 201 0.0 0.0 0.00 0.00 0.00 97 974.3
20260901122014 80 201 0.0 0.0 0.00 0.00 0.00 96 974.2
20260901121508 80 201 0.0 0.0 0.00 0.00 0.00 96 974.1
20260901121003 81 201 0.0 0.0 0.00 0.00 0.00 96 974.0
20260901120458 81 201 0.0 0.0 0.00 0.00 0.00 95 974.1
20260901115953 81 201 0.0 0.0 0.00 0.00 0.00 95 974.2
20260901115449 81 201 0.0 0.0 0.00 0.00 0.00 94 974.2
20260901114946 81 201 0.0 0.0 0.00 0.00 0.00 94 974.2
20260901114441 81 201 0.0 0.0 0.00 0.00 0.00 94 973.9
20260901113939 81 201 0.0 0.0 0.00 0.00 0.00 94 973.9
20260901113438 81 200 0.0 0.0 0.00 0.00 0.00 93 973.8
20260901112934 81 201 0.0 0.0 0.00 0.00 0.00 93 973.7
20260901112429 81 200 0.0 0.0 0.00 0.00 0.00 93 973.5
20260901111924 82 200 0.0 0.0 0.00 0.00 0.00 93 973.6
20260901111423 82 200 0.0 0.0 0.00 0.00 0.00 94 973.3
20260901110921 82 199 0.0 0.0 0.00 0.00 0.00 93 973.3
20260901110417 82 198 0.0 0.0 0.00 0.00 0.00 92 973.5
20260901105913 82 198 0.0 0.0 0.00 0.00 0.00 91 973.2
20260901105408 82 198 0.0 0.0 0.00 0.00 0.00 92 973.1
20260901104904 82 198 0.0 0.0 0.00 0.00 0.00 91 973.2
20260901104359 82 198 0.0 0.0 0.00 0.00 0.00 92 973.1
20260901103855 82 198 0.0 0.0 0.00 0.00 0.00 90 972.9
20260901103354 82 198 0.0 0.0 0.00 0.00 0.00 92 973.0
20260901102848 82 199 0.0 0.0 0.00 0.00 0.00 92 972.7
20260901102343 82 194 0.0 0.0 0.00 0.00 0.00 92 972.9
20260901101839 82 194 0.0 0.0 0.00 0.00 0.00 92 972.8
20260901101333 83 194 0.0 0.0 0.00 0.00 0.00 92 972.4
20260901100833 83 194 0.0 0.0 0.00 0.00 0.00 92 972.7
20260901100328 83 194 0.0 0.0 0.00 0.00 0.00 91 972.7
20260901095827 83 194 0.0 0.0 0.00 0.00 0.00 92 972.8
20260901095324 84 194 0.0 0.0 0.00 0.00 0.00 91 972.6
20260901094818 84 193 0.0 0.0 0.00 0.00 0.00 91 972.8
20260901094313 84 193 0.0 0.0 0.00 0.00 0.00 91 972.8
20260901093808 84 193 0.0 0.0 0.00 0.00 0.00 89 972.5
20260901093307 84 193 0.0 0.0 0.00 0.00 0.00 88 972.8
20260901092804 85 193 0.0 0.0 0.00 0.00 0.00 88 972.5
20260901092259 85 193 0.0 0.0 0.00 0.00 0.00 88 972.4
20260901091755 85 193 0.0 0.0 0.00 0.00 0.00 87 972.3
20260901091249 86 193 0.0 0.0 0.00 0.00 0.00 87 972.4
20260901090744 86 193 0.0 0.0 0.00 0.00 0.00 87 972.4
20260901090239 87 193 0.0 0.0 0.00 0.00 0.00 86 972.3
20260901085735 87 193 0.0 0.0 0.00 0.00 0.00 84 972.4
20260901085230 87 193 0.0 0.0 0.00 0.00 0.00 84 972.6
20260901084726 88 193 0.0 0.0 0.00 0.00 0.00 83 972.9
20260901084223 88 193 0.0 0.0 0.00 0.00 0.00 81 972.7